Aérodrome :
LOGIN :

S'inscrire | Disclaimer

   EN    FR    IT 

 










Légende :    VFR   VFR Marginal   IFR   IFR Intensif   IFR Très Intensif
Visi : 
Plafond : 
>= 8 km
>= 3000ft
5 à 8 km
1000 à 3000 ft
1500m à 5 km
500 à 1000 ft
800 à 1500m
200 à 500 ft
< 800m
< 200 ft
Symboles :   Orages  Brouillard  Fortes neiges  Fortes précipitations  Vent > 20 kt
SIGMETs :   Divers  Orages  Givrage  Turbulence  Onde Orograph.  Cendres Volcan.







- Altitude de l'aérodrome : 1966 ft
- Code IATA : SGE


EDGS - Siegerland

DERNIER METAR :
  • 201020Z 18005KT CAVOK 21/08 Q1026

METARs EXPIRÉS :
  • 200950Z 17005KT CAVOK 21/07 Q1026
  • 200920Z 18008KT CAVOK 21/08 Q1026
  • 200850Z 18009KT CAVOK 20/07 Q1026
  • 200820Z 17007KT CAVOK 21/08 Q1026

TAF TAF EDGS
Valide du 20 à 09h jusqu'au 20 à 18h UTC


200800Z 2009/2018 16006KT CAVOK
BECMG 2009/2012 23006KT
BECMG 2013/2016 29005KT
Pas de NOTAMs connus pour ce terrain.



MET'MAP, la Météo Aéronautique d'un coup d'oeil ! - Copyright ORBIFLY Décembre 2007 - Disclaimer

ORBIFLY MET'MAP TEAM :

Programmation & Développement : Alexandra Zaïnal
Conception & Développement : Baudouin d'Aumeries
Co-Programmation & Développement : Marc-Olivier Méhu
Soutien technique & logistique : Manuel Goepfert

Contact : metmap@orbifly.com




SOURCES & CREDITS :

   NOAA